RH
58 100 100 82 64 51 79 77 73 65 46 44 64 56 53 60 53 70 58 75 84 67 59 51 45 48 54 50 42 45 76 100 92 77 81 82 80 100 98 100 100 100 100 100
60 56 54 84 72 52 47 63 69 58 61 50 53 51 42 74 90 68 65 64 65 66 59 55 50 52 54 46 37 42 57 95 100 100 100 94 84 65 60 56 54 76 96 100
76 83 78 71 87 71 58 56 71 82 70 44 35 39 58 96 91 69 71 60 63 60 57 55 59 64 67 74 69 65 58 52 59 65 78 94 97 97 99 100 95 84 70 59
79 86 83 94 97 78 50 55 62 79 97 86 82 97 100 99 89 93 100 98 85 71 67 63 66 74 89 98 100 100 100 100 97 92 80 71 69 66 59 69 73 74 66 59
94 74 100 84 99 77 71 46 74 79 100 97 100 100 100 86 85 71 90 99 96 96 100 100 97 86 79 81 86 77 73 79 79 67 64 58 51 50 47 43 40 40 38 38
96 81 95 93 91 92 78 84 60 75 83 84 98 97 97 84 81 86 84 85 82 85 85 91 91 90 93 96 94 86 88 86 76 73 78 74 71 65 53 53 46 37 34 30
100 97 79 94 100 99 100 100 90 98 92 97 100 87 95 75 76 74 70 65 71 88 94 96 91 91 83 81 71 63 54 53 56 58 55 50 49 45 39 36 32 27 23 19
100 100 100 78 97 99 86 100 100 100 100 100 100 99 90 68 78 84 85 74 69 70 71 71 78 87 69 57 60 60 52 48 46 43 40 42 38 35 33 25 20 17 16 17
60 94 84 72 68 65 73 87 87 79 94 78 86 98 96 86 88 81 83 68 64 66 56 56 59 60 54 53 48 55 57 49 48 48 49 46 36 27 20 19 21 19 14 12
72 76 100 84 71 79 91 93 84 83 82 70 66 68 73 66 64 69 84 73 68 58 54 55 57 58 68 65 68 60 52 43 52 50 43 32 27 25 25 20 13 11 12 14
100 87 95 100 88 98 92 88 100 95 83 76 70 69 86 82 82 72 63 55 51 54 48 57 69 63 58 62 61 56 46 51 53 43 32 32 32 31 16 14 15 17 20 20
84 84 91 100 88 88 96 100 85 92 89 79 74 65 73 68 65 60 47 48 54 47 62 64 60 62 62 59 58 56 52 46 43 38 38 37 32 23 21 18 22 23 26 27
100 100 84 75 100 100 100 98 100 90 84 80 76 69 77 68 49 37 43 39 48 49 53 55 60 65 70 70 57 43 42 46 48 42 38 36 24 30 37 32 33 35 32 32
100 100 100 80 86 94 89 72 71 76 65 59 58 54 50 44 45 42 38 40 41 41 52 53 64 72 67 54 50 49 52 49 44 39 39 30 31 43 58 63 56 65 56 51
100 98 99 94 97 95 93 62 50 58 74 58 36 32 28 39 63 50 30 32 43 52 48 54 60 64 55 54 56 57 51 45 39 39 30 32 42 52 62 70 76 81 87 84
98 89 90 62 73 58 48 41 50 37 30 27 27 22 45 42 30 44 53 33 37 48 55 51 52 55 52 50 52 52 42 33 36 27 27 39 52 64 64 68 74 83 81 78
88 61 43 40 43 30 22 38 28 24 26 25 20 20 27 33 28 39 42 28 34 46 51 49 43 45 47 45 50 41 33 36 25 30 43 54 57 61 66 68 72 76 86 88
30 32 33 29 28 22 26 29 24 22 18 21 17 17 24 23 36 23 34 40 40 40 44 43 42 44 42 46 36 38 35 26 29 36 45 55 60 57 59 66 67 72 80 84
24 27 26 21 20 19 22 40 15 16 18 28 18 19 16 29 27 30 36 34 37 38 41 48 46 48 43 37 44 31 25 28 39 40 40 44 47 49 54 50 60 65 74 79
24 22 20 19 19 18 28 24 18 15 15 28 19 17 20 23 25 29 32 37 38 42 46 59 53 42 52 40 27 32 40 37 31 27 26 26 27 30 35 38 50 54 60 72
21 20 20 18 16 15 24 16 17 17 19 21 18 17 21 23 23 27 29 33 42 51 53 55 66 54 37 35 43 38 29 21 16 14 13 14 14 16 24 34 42 43 50 60
17 22 22 23 15 13 16 16 16 18 18 17 19 22 22 22 24 25 31 37 46 56 71 62 51 47 45 45 36 22 16 13 12 11 10 11 12 14 18 25 35 40 47 54
20 22 21 18 14 16 18 16 18 17 16 19 19 22 24 26 26 32 38 58 77 69 64 65 62 53 49 34 21 16 12 10 10 10 10 11 14 16 19 26 36 43 45 49
22 23 14 11 17 15 16 18 19 17 18 22 23 25 26 29 35 48 75 76 73 77 79 72 59 54 39 25 17 14 12 11 11 11 12 14 16 18 22 28 34 41 48 52
16 13 12 14 15 16 16 19 20 23 28 26 27 31 30 36 59 86 82 86 85 86 80 67 55 46 31 19 17 14 13 14 14 15 16 18 20 24 32 41 48 53 55 58
11 12 14 16 16 16 20 24 24 24 24 32 34 35 41 80 85 80 88 91 91 85 75 60 55 42 26 19 17 16 18 18 19 21 23 25 29 36 47 57 62 66 67 67
Wind_Speed
76 77 79 80 76 74 71 70 66 67 71 72 71 76 78 82 86 88 80 70 68 66 67 66 66 68 69 71 71 74 77 78 80 82 85 87 87 88 87 86 91 92 93 94
85 86 81 78 80 79 78 76 74 74 74 75 76 78 84 88 87 87 78 72 70 70 69 69 68 68 71 70 68 71 78 83 86 88 89 90 91 90 89 90 91 93 98 101
86 90 83 84 82 82 81 81 80 78 81 80 82 84 91 89 89 84 79 78 77 76 75 73 72 70 72 72 72 72 74 76 79 81 84 86 88 90 92 94 95 97 98 99
93 93 90 83 85 86 84 86 85 87 85 87 88 88 89 93 86 81 80 78 79 80 79 78 77 75 74 77 80 81 83 84 86 88 90 92 95 97 99 101 102 105 106 108
100 95 95 91 87 89 87 89 91 89 90 90 88 94 88 91 88 84 82 84 86 85 84 83 84 84 83 82 83 85 86 90 93 93 93 94 94 97 99 102 103 103 106 110
103 97 98 98 95 95 95 96 100 99 101 98 99 104 91 101 91 91 88 91 91 92 92 91 90 88 87 88 89 90 92 93 94 95 97 99 101 102 105 109 112 112 113 109
104 104 106 102 98 97 97 99 102 104 105 104 110 104 96 101 97 93 95 93 94 95 94 94 93 92 93 94 94 95 98 99 99 99 99 102 106 109 111 111 107 103 99 95
108 110 106 105 101 104 106 104 104 107 107 106 106 101 98 97 103 99 102 103 102 100 99 98 99 100 102 103 103 105 105 103 103 101 102 102 104 103 100 93 89 88 86 85
110 105 102 101 101 101 107 109 108 109 108 109 102 103 100 105 102 104 103 107 109 106 107 105 105 107 109 108 107 108 108 105 102 101 101 100 94 88 84 82 81 79 76 74
106 104 110 111 100 102 107 108 107 108 112 109 107 103 103 111 108 103 107 111 110 107 106 106 105 104 100 98 101 102 100 95 93 94 89 81 77 76 77 73 66 64 64 63
112 110 108 117 109 107 110 110 114 116 114 114 111 108 107 111 110 111 111 105 101 93 92 90 88 90 91 90 90 91 87 85 81 74 72 71 70 70 68 60 57 54 56 58
120 116 112 116 114 115 114 117 118 117 119 117 116 112 112 111 112 106 98 90 82 82 83 82 84 84 84 83 81 78 73 70 68 67 65 66 66 61 61 54 50 50 51 53
125 122 120 115 117 120 124 118 119 120 119 116 121 111 112 109 100 93 89 85 79 76 77 78 78 79 77 74 70 66 63 62 64 65 64 62 58 55 55 52 46 44 47 49
132 128 126 125 125 129 130 123 121 120 120 114 108 102 95 91 92 89 87 82 81 77 75 74 73 73 71 69 65 62 61 63 64 64 62 58 56 50 45 46 42 40 40 46
130 129 128 125 123 119 119 114 105 106 105 103 92 94 82 82 85 84 82 76 75 75 73 71 69 68 68 67 66 64 65 64 63 62 59 55 51 45 40 38 38 39 41 44
132 126 126 116 108 108 108 95 94 96 90 90 88 77 75 81 80 75 80 73 73 70 71 70 69 69 68 67 65 66 65 61 58 56 56 52 47 43 40 37 33 34 35 36
115 111 109 101 102 100 91 85 88 83 80 80 77 70 71 76 71 69 79 71 68 68 68 70 70 68 68 66 64 64 60 56 53 53 52 51 48 43 39 37 34 32 32 32
100 99 99 94 94 91 79 78 78 76 73 72 70 63 64 67 62 66 65 65 65 63 64 65 65 64 62 61 60 58 55 53 53 52 50 49 50 49 47 43 38 34 34 33
92 91 91 86 81 77 66 65 76 67 60 65 61 57 55 53 60 57 57 57 57 57 57 57 57 56 56 55 54 53 54 52 51 51 49 50 52 52 51 46 43 39 36 33
80 81 82 74 71 68 58 63 65 63 46 59 55 50 46 48 48 47 50 49 50 49 49 49 50 51 51 50 51 51 50 50 50 48 47 48 48 50 49 46 46 43 38 35
74 72 69 67 66 59 56 54 56 55 50 49 48 45 42 42 40 39 40 40 40 41 42 43 45 45 46 48 48 47 46 45 44 43 43 42 41 40 40 43 46 44 38 35
62 63 61 64 61 53 50 49 47 48 48 44 41 40 38 36 34 33 33 33 34 36 37 38 40 43 44 44 44 43 41 40 40 38 36 34 33 32 34 36 40 41 40 38
50 58 55 59 54 49 44 43 41 42 38 39 37 36 34 31 29 29 30 30 32 32 33 36 40 41 41 40 39 39 36 34 31 30 28 26 26 28 30 32 35 40 40 37
48 53 53 50 46 43 40 39 37 38 34 33 32 31 29 27 27 27 28 28 28 30 34 37 38 38 38 36 35 32 29 26 24 23 22 22 25 27 29 31 33 36 37 38
47 48 42 39 39 37 34 33 32 30 29 30 28 26 27 26 25 25 24 26 28 31 34 36 35 35 33 32 29 27 24 21 20 20 20 21 23 24 24 25 27 31 34 36
43 35 33 33 32 30 27 28 30 30 27 25 25 25 25 23 24 23 24 27 30 31 33 35 34 32 30 28 25 22 20 18 18 18 20 22 22 23 24 25 27 30 33 36
Wind_Direction
283 279 281 284 285 283 282 286 284 285 286 288 290 292 293 296 297 298 295 285 281 278 277 278 277 275 273 274 274 271 269 267 267 267 266 266 268 271 267 267 267 267 267 268
281 281 285 282 283 283 282 285 287 286 287 288 286 290 293 293 297 296 290 285 281 282 282 282 281 279 278 279 277 273 270 268 268 267 268 269 269 268 266 267 266 267 267 266
281 281 280 282 281 283 282 285 286 287 287 287 288 292 291 292 294 293 289 287 285 284 283 283 283 282 281 280 279 277 274 273 272 272 271 271 271 270 270 271 270 269 267 265
279 281 281 281 282 283 282 285 287 286 288 289 290 289 291 292 292 287 286 287 287 286 285 284 282 281 279 275 274 273 271 271 272 272 272 272 272 272 272 270 270 269 269 268
277 278 280 280 282 283 284 285 285 286 287 285 287 290 293 293 288 287 285 284 283 283 283 284 284 283 281 279 277 274 272 272 271 271 271 272 273 273 272 273 273 274 275 273
276 277 277 277 281 282 282 284 285 284 285 285 286 287 290 289 289 286 285 285 284 283 283 283 283 281 280 278 276 276 275 275 275 275 275 276 276 276 276 276 278 278 277 275
274 275 275 277 279 279 280 280 280 283 285 284 283 286 288 288 288 287 285 283 284 284 283 282 282 282 280 280 279 279 279 278 277 277 277 278 278 278 278 279 279 277 276 274
274 274 272 278 278 279 279 281 281 280 280 284 287 287 286 285 289 288 288 287 286 285 284 282 281 281 281 280 279 280 280 280 280 280 281 282 282 282 282 281 278 277 275 272
272 274 275 276 277 280 279 279 280 281 283 282 283 285 284 285 284 286 286 287 286 284 284 283 282 281 280 280 280 280 281 282 284 284 285 285 285 283 282 281 278 276 273 271
274 273 277 279 280 280 280 280 282 282 281 282 282 281 286 285 286 286 287 287 286 285 283 282 282 282 281 280 280 281 282 285 285 286 286 284 284 283 283 282 279 274 270 267
275 276 276 278 282 281 281 281 282 281 283 284 285 286 287 285 287 287 286 284 283 283 282 281 280 280 281 282 282 283 285 286 286 286 283 283 284 286 284 283 279 273 267 263
274 278 277 278 281 281 281 282 280 280 283 282 285 285 285 286 285 286 284 281 278 281 280 280 280 281 282 283 283 285 286 287 284 282 281 284 287 286 286 285 279 273 266 260
276 277 279 280 282 280 281 282 281 281 282 283 284 286 285 286 286 281 278 277 276 276 275 276 278 280 281 282 284 285 287 283 282 283 285 287 285 286 285 286 280 273 266 264
276 277 279 278 280 281 281 284 283 283 284 285 284 284 283 283 281 277 276 276 275 273 272 274 278 279 280 282 285 288 286 284 284 285 286 284 283 282 279 281 280 271 269 260
277 278 279 279 279 280 280 281 283 282 281 282 282 282 282 279 276 276 276 275 273 271 269 271 274 276 280 282 284 285 285 284 284 283 282 279 280 276 270 273 276 273 268 264
275 276 276 278 280 278 278 282 281 280 281 280 279 277 276 271 274 277 277 276 275 273 270 272 274 275 278 279 281 283 283 281 280 279 277 276 274 272 270 265 267 270 270 269
273 274 275 276 277 278 281 281 279 281 280 277 276 275 271 271 271 273 273 275 273 273 271 272 274 276 278 280 281 281 281 280 279 277 274 274 273 268 264 263 261 264 269 271
273 273 273 274 274 276 279 280 279 275 276 276 275 273 269 271 272 271 272 273 274 272 271 273 275 277 278 279 280 281 280 281 280 279 277 274 271 268 262 260 261 260 264 266
269 271 273 275 274 276 279 276 274 276 276 277 275 274 273 268 269 271 269 270 271 273 274 275 276 278 279 281 280 281 283 284 281 277 273 267 263 262 261 260 258 257 257 261
269 270 272 274 275 274 277 271 277 276 275 269 275 274 275 270 267 267 268 269 271 273 275 276 277 278 279 280 284 288 287 283 280 277 272 268 264 262 260 258 257 255 251 253
269 272 274 275 275 274 272 273 269 276 274 271 269 273 271 268 268 266 268 270 271 272 272 274 276 279 282 287 289 288 285 282 280 276 271 268 265 263 258 254 251 252 249 246
270 272 275 273 274 278 276 274 273 271 270 269 266 267 266 265 265 267 269 269 269 269 272 276 280 284 289 290 289 288 286 282 278 274 271 267 264 260 255 249 246 246 246 243
271 267 267 269 271 275 273 271 270 267 268 264 262 264 261 260 264 267 267 265 268 269 275 281 285 291 293 293 293 291 286 281 276 271 266 262 256 251 246 245 243 241 241 241
263 263 264 268 268 269 268 267 265 264 260 256 259 261 257 257 260 261 262 262 268 275 280 284 291 297 296 294 293 289 286 282 276 270 262 256 251 247 244 244 244 242 241 240
259 261 266 270 266 264 262 260 258 256 252 256 251 249 251 253 257 256 258 269 272 276 281 288 296 297 295 296 296 294 288 283 277 267 262 260 258 253 252 251 248 244 243 242
257 262 260 258 259 255 252 247 245 247 245 245 243 245 245 249 248 254 264 267 271 277 286 294 298 295 295 300 302 299 289 280 270 263 259 256 252 248 245 243 241 240 239 238